Previsão horária em Alhimkovo

Hoje, 22 Junho, Terça-feira

Tempo Temperatura Precipitação Vento Pressão Humidade
00:00 +21°C° 0 mm 1 m/s 749 mmHg 74%
01:00 +21°C° 0 mm 1 m/s 749 mmHg 77%
02:00 +20°C° 0 mm 1 m/s 749 mmHg 79%
03:00 +21°C° 0 mm 1 m/s 750 mmHg 80%
04:00 +22°C° 0 mm 1 m/s 750 mmHg 80%
05:00 +22°C° 0 mm 1 m/s 750 mmHg 80%
06:00 +24°C° 0 mm 1 m/s 750 mmHg 73%
07:00 +26°C° 0 mm 1 m/s 750 mmHg 66%
08:00 +28°C° 0 mm 2 m/s 750 mmHg 57%
09:00 +29°C° 0 mm 2 m/s 750 mmHg 52%
10:00 +31°C° 0 mm 2 m/s 750 mmHg 46%
11:00 +32°C° 0 mm 2 m/s 750 mmHg 40%
12:00 +32°C° 0 mm 2 m/s 750 mmHg 38%
13:00 +34°C° 0 mm 2 m/s 749 mmHg 36%
14:00 +35°C° 0 mm 2 m/s 749 mmHg 35%
15:00 +34°C° 0 mm 2 m/s 749 mmHg 39%
16:00 +34°C° 0 mm 2 m/s 749 mmHg 42%
17:00 +34°C° 0 mm 2 m/s 749 mmHg 46%
18:00 +30°C° 0 mm 2 m/s 749 mmHg 54%
19:00 +28°C° 0 mm 1 m/s 749 mmHg 62%
20:00 +26°C° 0 mm 1 m/s 749 mmHg 71%
21:00 +25°C° 0 mm 1 m/s 749 mmHg 72%
22:00 +24°C° 0 mm 1 m/s 749 mmHg 74%
23:00 +24°C° 0 mm 1 m/s 749 mmHg 75%

Amanhã, 23 Junho, Quarta-feira

Tempo Temperatura Precipitação Vento Pressão Humidade
00:00 +23°C° 0 mm 1 m/s 749 mmHg 78%
01:00 +22°C° 0 mm 1 m/s 749 mmHg 80%
02:00 +22°C° 0 mm 1 m/s 750 mmHg 82%
03:00 +22°C° 0 mm 1 m/s 750 mmHg 81%
04:00 +23°C° 0 mm 1 m/s 750 mmHg 80%
05:00 +23°C° 0 mm 1 m/s 750 mmHg 79%
06:00 +26°C° 0 mm 1 m/s 750 mmHg 72%
07:00 +28°C° 0 mm 1 m/s 750 mmHg 65%
08:00 +30°C° 0 mm 2 m/s 750 mmHg 58%
09:00 +31°C° 0 mm 2 m/s 750 mmHg 52%
10:00 +32°C° 0 mm 2 m/s 750 mmHg 46%
11:00 +35°C° 0 mm 2 m/s 750 mmHg 40%
12:00 +35°C° 0 mm 2 m/s 750 mmHg 38%
13:00 +36°C° 0 mm 3 m/s 750 mmHg 35%
14:00 +36°C° 0 mm 3 m/s 750 mmHg 33%
15:00 +36°C° 0 mm 3 m/s 750 mmHg 36%
16:00 +35°C° 0 mm 3 m/s 750 mmHg 38%
17:00 +35°C° 0 mm 2 m/s 750 mmHg 41%
18:00 +31°C° 0 mm 2 m/s 749 mmHg 49%
19:00 +29°C° 0 mm 2 m/s 749 mmHg 57%
20:00 +26°C° 0 mm 2 m/s 749 mmHg 65%
21:00 +26°C° 0 mm 2 m/s 749 mmHg 67%
22:00 +25°C° 0 mm 1 m/s 749 mmHg 68%
23:00 +24°C° 0 mm 1 m/s 749 mmHg 69%

Depois de amanhã, 24 Junho, Quinta-feira

Tempo Temperatura Precipitação Vento Pressão Humidade
00:00 +23°C° 0 mm 1 m/s 749 mmHg 71%
01:00 +23°C° 0 mm 2 m/s 750 mmHg 72%
02:00 +21°C° 0 mm 2 m/s 750 mmHg 73%
03:00 +23°C° 0 mm 2 m/s 750 mmHg 74%
04:00 +23°C° 0 mm 1 m/s 750 mmHg 74%
05:00 +24°C° 0 mm 1 m/s 749 mmHg 74%
06:00 +26°C° 0 mm 2 m/s 749 mmHg 67%
07:00 +28°C° 0 mm 2 m/s 749 mmHg 61%
08:00 +30°C° 0 mm 2 m/s 749 mmHg 54%
09:00 +31°C° 0 mm 2 m/s 749 mmHg 49%
10:00 +34°C° 0 mm 2 m/s 749 mmHg 44%
11:00 +35°C° 0 mm 2 m/s 749 mmHg 39%
12:00 +35°C° 0 mm 2 m/s 749 mmHg 37%
13:00 +36°C° 0 mm 2 m/s 749 mmHg 34%
14:00 +36°C° 0 mm 2 m/s 748 mmHg 32%
15:00 +36°C° 0 mm 3 m/s 748 mmHg 34%
16:00 +35°C° 0 mm 3 m/s 748 mmHg 37%
17:00 +35°C° 0 mm 3 m/s 748 mmHg 40%
18:00 +30°C° 0.4 mm 3 m/s 748 mmHg 53%
19:00 +27°C° 0.4 mm 3 m/s 748 mmHg 66%
20:00 +24°C° 0.4 mm 3 m/s 748 mmHg 80%
21:00 +23°C° 0.6 mm 2 m/s 748 mmHg 84%
22:00 +20°C° 0.6 mm 2 m/s 748 mmHg 89%
23:00 +20°C° 0.6 mm 1 m/s 748 mmHg 93%

25 Junho, Sexta-feira

Tempo Temperatura Precipitação Vento Pressão Humidade
00:00 +20°C° 0.3 mm 1 m/s 748 mmHg 93%
01:00 +20°C° 0.3 mm 1 m/s 748 mmHg 93%
02:00 +20°C° 0.3 mm 1 m/s 748 mmHg 93%
03:00 +20°C° 0.1 mm 1 m/s 748 mmHg 92%
04:00 +21°C° 0.1 mm 1 m/s 748 mmHg 91%
05:00 +22°C° 0.1 mm 1 m/s 747 mmHg 90%
06:00 +24°C° 0 mm 1 m/s 747 mmHg 82%
07:00 +26°C° 0 mm 1 m/s 747 mmHg 74%
08:00 +28°C° 0 mm 1 m/s 747 mmHg 65%
09:00 +30°C° 0 mm 1 m/s 747 mmHg 59%
10:00 +31°C° 0 mm 2 m/s 747 mmHg 53%
11:00 +34°C° 0 mm 2 m/s 747 mmHg 47%
12:00 +34°C° 0 mm 2 m/s 747 mmHg 46%
13:00 +34°C° 0 mm 2 m/s 746 mmHg 45%
14:00 +35°C° 0 mm 2 m/s 746 mmHg 43%
15:00 +30°C° 1.3 mm 3 m/s 746 mmHg 58%
16:00 +26°C° 1.3 mm 4 m/s 746 mmHg 74%
17:00 +21°C° 1.3 mm 4 m/s 746 mmHg 89%
18:00 +21°C° 0.6 mm 4 m/s 746 mmHg 91%
19:00 +20°C° 0.6 mm 4 m/s 746 mmHg 93%
20:00 +19°C° 0.6 mm 3 m/s 746 mmHg 95%
21:00 +19°C° 0 mm 3 m/s 746 mmHg 95%
22:00 +19°C° 0 mm 2 m/s 746 mmHg 96%
23:00 +19°C° 0 mm 1 m/s 746 mmHg 97%

26 Junho, Sábado

Tempo Temperatura Precipitação Vento Pressão Humidade
00:00 +19°C° 0 mm 1 m/s 745 mmHg 97%
01:00 +19°C° 0 mm 1 m/s 745 mmHg 97%
02:00 +18°C° 0 mm 1 m/s 745 mmHg 97%
03:00 +19°C° 0 mm 1 m/s 745 mmHg 96%
04:00 +20°C° 0 mm 1 m/s 745 mmHg 94%
05:00 +20°C° 0 mm 1 m/s 745 mmHg 93%
06:00 +22°C° 0 mm 1 m/s 745 mmHg 84%
07:00 +24°C° 0 mm 2 m/s 745 mmHg 75%
08:00 +26°C° 0 mm 2 m/s 745 mmHg 67%
09:00 +28°C° 0 mm 2 m/s 745 mmHg 61%
10:00 +30°C° 0 mm 2 m/s 745 mmHg 55%
11:00 +31°C° 0 mm 2 m/s 745 mmHg 49%
12:00 +32°C° 0 mm 2 m/s 745 mmHg 46%
13:00 +34°C° 0 mm 2 m/s 745 mmHg 43%
14:00 +35°C° 0 mm 2 m/s 745 mmHg 40%
15:00 +34°C° 0.2 mm 2 m/s 744 mmHg 46%
16:00 +31°C° 0.2 mm 2 m/s 744 mmHg 52%
17:00 +30°C° 0.2 mm 3 m/s 743 mmHg 59%
18:00 +27°C° 2.1 mm 3 m/s 744 mmHg 70%
19:00 +24°C° 2.1 mm 3 m/s 745 mmHg 81%
20:00 +20°C° 2.1 mm 4 m/s 746 mmHg 92%
21:00 +20°C° 0.8 mm 3 m/s 745 mmHg 93%
22:00 +19°C° 0.8 mm 2 m/s 745 mmHg 94%
23:00 +20°C° 0.8 mm 1 m/s 745 mmHg 95%

27 Junho, Domingo

Tempo Temperatura Precipitação Vento Pressão Humidade
00:00 +20°C° 0 mm 1 m/s 745 mmHg 95%
01:00 +19°C° 0 mm 1 m/s 745 mmHg 95%
02:00 +18°C° 0 mm 2 m/s 745 mmHg 96%
03:00 +20°C° 0 mm 1 m/s 745 mmHg 95%
04:00 +20°C° 0 mm 1 m/s 745 mmHg 94%
05:00 +21°C° 0 mm 1 m/s 745 mmHg 93%
06:00 +23°C° 0 mm 1 m/s 745 mmHg 84%
07:00 +23°C° 0 mm 0 m/s 745 mmHg 76%
08:00 +25°C° 0 mm 0 m/s 745 mmHg 67%
09:00 +27°C° 0 mm 0 m/s 746 mmHg 61%
10:00 +28°C° 0 mm 0 m/s 746 mmHg 56%
11:00 +30°C° 0 mm 0 m/s 746 mmHg 50%
12:00 +30°C° 0 mm 0 m/s 746 mmHg 47%
13:00 +31°C° 0 mm 0 m/s 745 mmHg 44%
14:00 +31°C° 0 mm 0 m/s 745 mmHg 42%
15:00 +33°C° 0 mm 1 m/s 745 mmHg 46%
16:00 +32°C° 0 mm 1 m/s 745 mmHg 51%
17:00 +31°C° 0 mm 2 m/s 744 mmHg 55%
18:00 +29°C° 0 mm 2 m/s 745 mmHg 64%
19:00 +27°C° 0 mm 2 m/s 745 mmHg 73%
20:00 +25°C° 0 mm 2 m/s 745 mmHg 82%
21:00 +24°C° 0 mm 2 m/s 745 mmHg 86%
22:00 +23°C° 0 mm 2 m/s 745 mmHg 89%
23:00 +22°C° 0 mm 1 m/s 745 mmHg 93%
Mostrar mais